This is the latest recevied weather packets stored in our database for station/object IU5JAE-13. If no packets are shown the sender has not sent any weather packets the latest 10 day(s).
| Time | Temp. | Humidity | Pressure | Rain* | Wind** | Luminosity | Snow |
|---|---|---|---|---|---|---|---|
| 1787891422 | 23.89° C | 83% | 1018.9 hPa | 0 mm | - | 1 W/m² | - |
| 1787890820 | 23.89° C | 81% | 1018.3 hPa | 0 mm | - | 0 W/m² | - |
| 1787890217 | 23.33° C | 84% | 1018.3 hPa | 0 mm | - | 0 W/m² | - |
| 1787889635 | 22.78° C | 87% | 1019.2 hPa | 0 mm | - | 0 W/m² | - |
| 1787889033 | 23.33° C | 86% | 1018.9 hPa | 0 mm | - | 0 W/m² | - |
| 1787888430 | 23.33° C | 85% | 1019.1 hPa | 0 mm | - | 0 W/m² | - |
| 1787887832 | 23.33° C | 86% | 1019.4 hPa | 0 mm | - | 0 W/m² | - |
| 1787887225 | 23.33° C | 85% | 1019.4 hPa | 0 mm | - | 0 W/m² | - |
| 1787886623 | 22.78° C | 86% | 1019.7 hPa | 0 mm | - | 0 W/m² | - |
| 1787886020 | 22.78° C | 86% | 1019.8 hPa | 0 mm | - | 0 W/m² | - |
| 1787885418 | 22.78° C | 88% | 1020.1 hPa | 0 mm | - | 0 W/m² | - |
| 1787884816 | 22.78° C | 87% | 1020.3 hPa | 0 mm | - | 0 W/m² | - |
| 1787884233 | 22.78° C | 87% | 1020.6 hPa | 0 mm | - | 0 W/m² | - |
| 1787883631 | 22.78° C | 86% | 1020.6 hPa | 0 mm | - | 0 W/m² | - |
| 1787883028 | 22.78° C | 87% | 1020.6 hPa | 0 mm | - | 0 W/m² | - |
| 1787882426 | 23.33° C | 85% | 1020.5 hPa | 0 mm | - | 0 W/m² | - |
| 1787881824 | 23.33° C | 82% | 1020.2 hPa | 0 mm | - | 0 W/m² | - |
| 1787881221 | 23.89° C | 82% | 1019.9 hPa | 0 mm | - | 0 W/m² | - |
| 1787880619 | 23.89° C | 81% | 1019.7 hPa | 0 mm | - | 0 W/m² | - |
| 1787880016 | 23.89° C | 81% | 1019.6 hPa | 0 mm | - | 0 W/m² | - |
| 1787879434 | 24.44° C | 80% | 1019.7 hPa | 0 mm | - | 0 W/m² | - |
| 1787878832 | 23.89° C | 80% | 1019.8 hPa | 0 mm | - | 0 W/m² | - |
| 1787878229 | 23.89° C | 82% | 1019.8 hPa | 0 mm | - | 0 W/m² | - |
| 1787877627 | 23.89° C | 82% | 1019.6 hPa | 0 mm | - | 0 W/m² | - |
| 1787877024 | 23.89° C | 82% | 1019.6 hPa | 0 mm | - | 0 W/m² | - |
* Rain latest hour (hover to see other rain measurements)
** Current wind speed in m/s (hover to see current wind gust speed)